CTS DEB (ARRAY COVER), 39689

Orbit data source: Space-Track

CTS DEB (ARRAY COVER), 39689 is space debris in GEO originally from a launch on Sat, 17 Jan 1976 UTC launched from the Air Force Eastern Test Range (AFETR). Debris objects in space refer to the collection of defunct objects orbiting the Earth. Examples of debris include non-operational satellites, rocket bodies, and fragments generated from explosions, collisions, or faulty payload assembly.

Loading next visibility...
CTS DEB (ARRAY COVER) details
Identifier
39689, 1976-004F
Orbit
GEO
Last TLE update4 days ago
Origin
Flag of CACRC (CA)
ManufacturerCRC
MissionSpacecraft
Bus & MotorUnknown
MassWet unknown, 4 kg dry
Launch date (UTC)
1976-01-17 (49 years ago)
Launch vehicleUnknown
Launch site
Air Force Eastern Test Range (AFETR)
Object type
Payload
Rocket body
Debris
Shape & HBRBox, 1.8 m
Radar Cross Section1.800 m²

Expand to show TLE details & history

TLE from 4 days ago
0 CTS DEB (ARRAY COVER)
1 39689U 76004F   24357.87445621  .00000035  00000-0  00000-0 0  9998
2 39689   4.6664 275.8491 0160176  40.0641 321.3207  1.00273773 61460
Epoch: 2024-12-22T20:59Z
Definitive object data (Epoch: 2024-12-22T20:59:13.016Z)
Latitude
Longitude-130.64481°
Altitude35,261.19 km
Speed3.113 km/s
True Right ascension18h 24m 15s
True Declination0° 00' 00"
Sunlit
Object was in daylight at TLE epoch
Visualization TLE readout
Latitude-4.26984°
Longitude163.26798°
Altitude35,959.733 km
Speed3.062 km/s
Apparent Right ascension13h 46m 53s
Apparent Declination-10° 47' 28"
Sunlit
Object is in daylight
Visualization observer readout
Local Sidereal Time15:44:04
Azimuth214.732° SW
Elevation32.475°
Doppler factor1
Orbital elements
Apogee altitude36,462.484 km
Perigee altitude35,111.712 km
Semi-major axis42,165.235 km
Eccentricity0.0160176
Inclination4.6664°
RAAN275.8491°
Arg. of periapsis40.0641°
True anomaly320.15547°
Mean anomaly321.3207°
Eccentric anomaly320.73992°
Mean motion0.25068 °/min
BSTARUnknown
Orbital period1436.12 mins
Loading historical data...
39689 neighbors
Authenticating...
Loading maneuver chart data...
Loading historical data...
Loading historical data...
Loading historical data...
Loading historical data...
Loading historical data...
Loading historical data...
Loading historical data...

CTS DEB (ARRAY COVER) Visibility forecast

Observer location: undefined°, undefined

Span
Click to sort rows by Start time (UTC) header in descending order
Start Az.
Max El. time (UTC)
Max El. Az.
Max El.
End time (UTC)
End Az.
1440 mins2024-12-26 16:21:54.497Z214.721° SW2024-12-27 03:08:54.497Z216.098° SW34.168°2024-12-27 16:21:54.497Z214.735° SW
|